Change the Weather History Date:

Wednesday, March 20, 2013

  Actual Average Record
Temperature  
Mean Temperature 60 °F -  
Max Temperature 70 °F 68 °F 89 °F (1997)
Min Temperature 51 °F 43 °F 34 °F (1982)
Degree Days  
Heating Degree Days 4    
Growing Degree Days 10 (Base 50)    
Moisture  
Dew Point 47 °F    
Average Humidity 73    
Maximum Humidity 96    
Minimum Humidity 47    
Precipitation  
Precipitation 0.00 in - - ()
Sea Level Pressure  
Sea Level Pressure 30.09 in    
Wind  
Wind Speed 6 mph (NW)    
Max Wind Speed 20 mph    
Max Gust Speed 28 mph    
Visibility 10 miles    
Events      
Averages and records for this station are not official NWS values.
T = Trace of Precipitation, MM = Missing Value Source: NWS Daily Summary

Daily Weather History Graph

Daily Weather History Graph

Search for Another Location

Airport or City:

Trip Planner

Search our weather history database for the weather conditions in past years. The results will help you decide how hot, cold, wet, or windy it might be!

Date:

Astronomy

Mar. 20, 2013 Rise Set
Actual Time 7:05 AM PDT 7:14 PM PDT
Civil Twilight 6:40 AM PDT 7:39 PM PDT
Nautical Twilight 6:10 AM PDT 8:09 PM PDT
Astronomical Twilight 5:40 AM PDT 8:39 PM PDT
Moon 1:05 PM PDT (3/20) 2:37 AM PDT (3/20)
Length of Visible Light 12h 59m
Length of Day
12h 08m
First Quarter, 60% of the Moon is Illuminated
Mar 20
First Quarter
Mar 27
Full
Apr 2
Last Quarter
Apr 10
New
Apr 18
First Quarter

Hourly Weather History & Observations

Time (PDT) Temp. Dew Point Humidity Pressure Visibility Wind Dir Wind Speed Gust Speed Precip Events Conditions
12:56 AM 54.0 °F 48.0 °F 80% 30.09 in 10.0 mi Calm Calm - N/A   Clear
1:56 AM 55.0 °F 46.0 °F 72% 30.07 in 10.0 mi Calm Calm - N/A   Clear
2:56 AM 53.1 °F 46.9 °F 80% 30.08 in 10.0 mi Calm Calm - N/A   Clear
3:56 AM 52.0 °F 48.0 °F 86% 30.06 in 10.0 mi NW 6.9 mph - N/A   Clear
4:56 AM 52.0 °F 48.0 °F 86% 30.05 in 10.0 mi ESE 4.6 mph - N/A   Clear
5:56 AM 51.1 °F 48.0 °F 89% 30.09 in 10.0 mi SSE 3.5 mph - N/A   Clear
6:56 AM 52.0 °F 48.0 °F 86% 30.09 in 10.0 mi Calm Calm - N/A   Scattered Clouds
7:56 AM 52.0 °F 48.0 °F 86% 30.10 in 10.0 mi SE 3.5 mph - N/A   Scattered Clouds
8:56 AM 55.9 °F 48.9 °F 77% 30.11 in 10.0 mi Calm Calm - N/A   Mostly Cloudy
9:56 AM 59.0 °F 51.1 °F 75% 30.13 in 10.0 mi NNW 8.1 mph - N/A   Clear
10:56 AM 64.0 °F 48.0 °F 56% 30.11 in 10.0 mi WNW 9.2 mph - N/A   Overcast
11:56 AM 66.0 °F 48.0 °F 52% 30.10 in 10.0 mi NNW 4.6 mph - N/A   Overcast
12:56 PM 70.0 °F 48.9 °F 47% 30.10 in 10.0 mi NNW 6.9 mph - N/A   Scattered Clouds
1:56 PM 66.9 °F 48.0 °F 51% 30.09 in 10.0 mi NW 17.3 mph - N/A   Clear
2:04 PM 66.2 °F 46.4 °F 49% 30.10 in 10.0 mi NNW 15.0 mph - N/A   Scattered Clouds
2:56 PM 60.1 °F 41.0 °F 49% 30.11 in 10.0 mi NNW 19.6 mph 27.6 mph N/A   Overcast
3:56 PM 59.0 °F 39.9 °F 49% 30.09 in 10.0 mi NW 16.1 mph - N/A   Overcast
4:56 PM 60.1 °F 44.1 °F 55% 30.06 in 10.0 mi NW 9.2 mph - N/A   Partly Cloudy
5:56 PM 57.9 °F 45.0 °F 62% 30.09 in 10.0 mi NNW 17.3 mph - N/A   Overcast
6:56 PM 55.9 °F 48.0 °F 75% 30.09 in 10.0 mi NW 15.0 mph 20.7 mph N/A   Mostly Cloudy
7:56 PM 54.0 °F 48.0 °F 80% 30.08 in 10.0 mi NW 6.9 mph - N/A   Mostly Cloudy
8:56 PM 53.1 °F 50.0 °F 89% 30.09 in 10.0 mi NNW 9.2 mph - N/A   Partly Cloudy
9:56 PM 52.0 °F 50.0 °F 93% 30.08 in 10.0 mi NNW 10.4 mph - N/A   Clear
10:56 PM 52.0 °F 50.0 °F 93% 30.07 in 10.0 mi NW 16.1 mph - N/A   Partly Cloudy
11:56 PM 51.1 °F 50.0 °F 96% 30.06 in 7.0 mi NW 12.7 mph - N/A   Mostly Cloudy